Tacoma Narrows, WA
on Thursday, January 17, 2013

Thursday
Previous Day Next Day
Daily Summary
 ActualAverageRecord
Temperature
Mean Temperature °F / °C °F / °C  
Max Temperature 37°F / 3°C 44°F / 6°C 53°F / 11°C (2005)
Min Temperature 30°F / -1°C 37°F / 2°C 30°F / -1°C (2013)
Degree Days
Heating Degree Days 32    
Moisture
Dew Point 33°F / 1°C   
Average Humidity 92    
Maximum Humidity 100    
Minimum Humidity 87    
Precipitation
Precipitation 0.00 in / 0.00 cm in / cm in / cm ()
Wind
Wind Speed 0 mph / 0 km/h   
Max Wind Speed 5 mph / 8 km/h   
Max Gust Speed mph / km/h   
Visibility 2 miles / 4 kilometers   
Events Fog   
Averages and records for this station are not official NWS values.
Key: T is trace of precipitation, MM is missing value
Source: NWS Daily Summary
Seasonal Weather Averages
Time(PST)TemperatureDew PointHumidity Pressure Visibility Wind DirectionWind SpeedGust SpeedPrecipitationEvents Conditions
12:04 AM 33.8°F / 1.0°C 30.2°F / -1.0°C 87% 30.51 in / 1033.1 hPa 1.0 miles / 1.6 kilometers Calm Calm - N/A   Mist
12:06 AM 33.8°F / 1.0°C 30.2°F / -1.0°C 87% 30.51 in / 1033.1 hPa 2.0 miles / 3.2 kilometers Calm Calm - N/A   Scattered Clouds
12:13 AM 33.8°F / 1.0°C 32.0°F / 0.0°C 93% 30.51 in / 1033.1 hPa 7.0 miles / 11.3 kilometers Calm Calm - N/A   Scattered Clouds
12:31 AM 30.2°F / -1.0°C 30.2°F / -1.0°C 100% 30.51 in / 1033.1 hPa 1.8 miles / 2.8 kilometers Calm Calm - N/A   Scattered Clouds
12:37 AM 32.0°F / 0.0°C 30.2°F / -1.0°C 93% 30.52 in / 1033.4 hPa 0.8 miles / 1.2 kilometers Calm Calm - N/A   Mostly Cloudy
12:46 AM 32.0°F / 0.0°C 30.2°F / -1.0°C 93% 30.51 in / 1033.1 hPa 1.8 miles / 2.8 kilometers Calm Calm - N/A   Mostly Cloudy
12:51 AM 33.8°F / 1.0°C 30.2°F / -1.0°C 87% 30.51 in / 1033.1 hPa 3.0 miles / 4.8 kilometers Calm Calm - N/A   Overcast
12:53 AM 33.1°F / 0.6°C 30.9°F / -0.6°C 92% 30.53 in / 1033.8 hPa 4.0 miles / 6.4 kilometers Calm Calm - N/A   Overcast
1:07 AM 35.6°F / 2.0°C 33.8°F / 1.0°C 93% 30.51 in / 1033.1 hPa 7.0 miles / 11.3 kilometers NE 3.5 mph / 5.6 km/h - N/A   Overcast
1:53 AM 35.1°F / 1.7°C 33.1°F / 0.6°C 92% 30.53 in / 1033.7 hPa 7.0 miles / 11.3 kilometers Calm Calm - N/A   Mostly Cloudy
2:06 AM 33.8°F / 1.0°C 30.2°F / -1.0°C 87% 30.51 in / 1033.1 hPa 5.0 miles / 8.0 kilometers Calm Calm - N/A   Scattered Clouds
2:50 AM 35.6°F / 2.0°C 32.0°F / 0.0°C 87% 30.51 in / 1033.1 hPa 6.0 miles / 9.7 kilometers Calm Calm - N/A   Mostly Cloudy
2:53 AM 35.6°F / 2.0°C 32.0°F / 0.0°C 87% 30.51 in / 1033.1 hPa 6.0 miles / 9.7 kilometers Calm Calm - N/A   Mostly Cloudy
3:02 AM 35.6°F / 2.0°C 33.8°F / 1.0°C 93% 30.50 in / 1032.7 hPa 6.0 miles / 9.7 kilometers Calm Calm - N/A   Overcast
3:32 AM 35.6°F / 2.0°C 32.0°F / 0.0°C 87% 30.48 in / 1032.1 hPa 6.0 miles / 9.7 kilometers Calm Calm - N/A   Scattered Clouds
3:53 AM 30.9°F / -0.6°C 30.0°F / -1.1°C 96% 30.49 in / 1032.4 hPa 2.0 miles / 3.2 kilometers Calm Calm - N/A   Clear
4:08 AM 33.8°F / 1.0°C 30.2°F / -1.0°C 87% 30.47 in / 1031.7 hPa 4.0 miles / 6.4 kilometers Calm Calm - N/A   Partly Cloudy
4:17 AM 32.0°F / 0.0°C 30.2°F / -1.0°C 93% 30.47 in / 1031.7 hPa 2.0 miles / 3.2 kilometers Calm Calm - N/A   Mostly Cloudy
4:24 AM 30.2°F / -1.0°C 30.2°F / -1.0°C 100% 30.47 in / 1031.7 hPa 1.2 miles / 2.0 kilometers Calm Calm - N/A   Mostly Cloudy
4:50 AM 33.8°F / 1.0°C 30.2°F / -1.0°C 87% 30.46 in / 1031.4 hPa 3.0 miles / 4.8 kilometers Calm Calm - N/A   Overcast
4:53 AM 34.0°F / 1.1°C 32.0°F / 0.0°C 92% 30.47 in / 1031.7 hPa 3.0 miles / 4.8 kilometers Calm Calm - N/A   Overcast
5:13 AM 33.8°F / 1.0°C 30.2°F / -1.0°C 87% 30.46 in / 1031.4 hPa 2.5 miles / 4.0 kilometers Calm Calm - N/A   Overcast
5:24 AM 33.8°F / 1.0°C 32.0°F / 0.0°C 93% 30.46 in / 1031.4 hPa 3.0 miles / 4.8 kilometers Calm Calm - N/A   Overcast
5:53 AM 34.0°F / 1.1°C 32.0°F / 0.0°C 92% 30.47 in / 1031.6 hPa 3.0 miles / 4.8 kilometers NW 4.6 mph / 7.4 km/h - N/A   Overcast
6:53 AM 35.1°F / 1.7°C 33.1°F / 0.6°C 92% 30.45 in / 1031.2 hPa 4.0 miles / 6.4 kilometers Calm Calm - N/A   Overcast
7:41 AM 35.6°F / 2.0°C 33.8°F / 1.0°C 93% 30.44 in / 1030.7 hPa 4.0 miles / 6.4 kilometers Calm Calm - N/A   Overcast
7:53 AM 35.1°F / 1.7°C 33.1°F / 0.6°C 92% 30.46 in / 1031.3 hPa 4.0 miles / 6.4 kilometers Calm Calm - N/A   Overcast
8:20 AM 35.6°F / 2.0°C 33.8°F / 1.0°C 93% 30.45 in / 1031.0 hPa 2.5 miles / 4.0 kilometers Calm Calm - N/A   Overcast
8:53 AM 35.1°F / 1.7°C 33.1°F / 0.6°C 92% 30.47 in / 1031.8 hPa 1.8 miles / 2.8 kilometers Calm Calm - N/A   Overcast
9:53 AM 35.1°F / 1.7°C 33.1°F / 0.6°C 92% 30.48 in / 1031.9 hPa 1.8 miles / 2.8 kilometers Calm Calm - N/A   Overcast
10:53 AM 35.1°F / 1.7°C 33.1°F / 0.6°C 92% 30.47 in / 1031.6 hPa 0.8 miles / 1.2 kilometers Calm Calm - N/A   Overcast
11:53 AM 36.0°F / 2.2°C 33.1°F / 0.6°C 89% 30.44 in / 1030.7 hPa 1.0 miles / 1.6 kilometers Calm Calm - N/A   Overcast
12:53 PM 37.0°F / 2.8°C 34.0°F / 1.1°C 89% 30.41 in / 1029.6 hPa 1.0 miles / 1.6 kilometers Calm Calm - N/A   Overcast
1:53 PM 37.0°F / 2.8°C 34.0°F / 1.1°C 89% 30.38 in / 1028.6 hPa 1.5 miles / 2.4 kilometers Calm Calm - N/A   Overcast
2:53 PM 37.0°F / 2.8°C 34.0°F / 1.1°C 89% 30.36 in / 1028.1 hPa 1.5 miles / 2.4 kilometers Calm Calm - N/A   Overcast
3:53 PM 37.0°F / 2.8°C 34.0°F / 1.1°C 89% 30.35 in / 1027.7 hPa 2.0 miles / 3.2 kilometers Calm Calm - N/A   Overcast
4:53 PM 36.0°F / 2.2°C 34.0°F / 1.1°C 93% 30.36 in / 1027.9 hPa 1.5 miles / 2.4 kilometers Calm Calm - N/A   Overcast
5:53 PM 36.0°F / 2.2°C 34.0°F / 1.1°C 93% 30.35 in / 1027.5 hPa 1.5 miles / 2.4 kilometers Calm Calm - N/A   Overcast
6:53 PM 36.0°F / 2.2°C 34.0°F / 1.1°C 93% 30.34 in / 1027.3 hPa 1.5 miles / 2.4 kilometers Calm Calm - N/A   Overcast
7:04 PM 35.6°F / 2.0°C 33.8°F / 1.0°C 93% 30.33 in / 1027.0 hPa 0.5 miles / 0.8 kilometers Calm Calm - N/A Fog Fog
7:34 PM 35.6°F / 2.0°C 33.8°F / 1.0°C 93% 30.33 in / 1027.0 hPa 0.2 miles / 0.4 kilometers Calm Calm - N/A Fog Fog
7:36 PM 35.6°F / 2.0°C 33.8°F / 1.0°C 93% 30.33 in / 1027.0 hPa 0.2 miles / 0.4 kilometers Calm Calm - N/A Fog Fog
7:53 PM 36.0°F / 2.2°C 34.0°F / 1.1°C 93% 30.34 in / 1027.2 hPa 0.2 miles / 0.4 kilometers Calm Calm - N/A Fog Fog
8:01 PM 35.6°F / 2.0°C 33.8°F / 1.0°C 93% 30.32 in / 1026.6 hPa 0.5 miles / 0.8 kilometers WSW 3.5 mph / 5.6 km/h - N/A Fog Fog
8:09 PM 35.6°F / 2.0°C 33.8°F / 1.0°C 93% 30.32 in / 1026.6 hPa 0.5 miles / 0.8 kilometers Calm Calm - N/A Fog Fog
8:53 PM 36.0°F / 2.2°C 35.1°F / 1.7°C 97% 30.33 in / 1026.9 hPa 0.5 miles / 0.8 kilometers Calm Calm - N/A Fog Fog
9:21 PM 35.6°F / 2.0°C 35.6°F / 2.0°C 100% 30.31 in / 1026.3 hPa 0.2 miles / 0.4 kilometers Calm Calm - N/A Fog Fog
9:41 PM 37.4°F / 3.0°C 35.6°F / 2.0°C 93% 30.31 in / 1026.3 hPa 0.2 miles / 0.4 kilometers Calm Calm - N/A Fog Fog
9:53 PM 37.0°F / 2.8°C 35.1°F / 1.7°C 93% 30.32 in / 1026.8 hPa 0.2 miles / 0.4 kilometers Calm Calm - N/A Fog Fog
10:53 PM 35.1°F / 1.7°C 34.0°F / 1.1°C 96% 30.32 in / 1026.5 hPa 0.2 miles / 0.4 kilometers South 3.5 mph / 5.6 km/h - N/A Fog Fog
11:53 PM 35.1°F / 1.7°C 33.1°F / 0.6°C 92% 30.31 in / 1026.3 hPa 0.2 miles / 0.4 kilometers Calm Calm - N/A Fog Fog
Moon Phase
Jan. 17 Jan. 18 Jan. 26 Feb. 03 Feb. 10
Sunrise:07:50 AM (PST) Moon Rise:10:30 AM (PST)1/17
Sunset:04:50 PM (PST) Moon Set:No Moon Set/

Copyright © 2014 The Weather Underground, Inc.